User: anonymous   Login
Location: Bazinghen
(50.8246°N, 1.6616°E)
Time: 17:31:35
(UTC+00:00)
Language:

Spot 4 - Orbit

View from above orbital plane
View from above orbital plane
View from above satellite
View from above satellite

Ground track
Ground track

The orbit data is extracted from the following two-line orbital elements,

1 25260U 98017A   20185.19664039  .00000003  00000-0  11506-4 0  9994
2 25260  98.2934 274.7061 0014316  93.2718 267.0116 14.53626445163388
Epoch (UTC): 03 July 2020 04:43:09
Eccentricity: 0.0014316
inclination: 98.2934°
perigee height: 703 km
apogee height: 724 km
right ascension of ascending node: 274.7061°
argument of perigee: 93.2718°
revolutions per day: 14.53626445
mean anomaly at epoch: 267.0116°
orbit number at epoch: 16338

The dashed part of the orbit path shows where the satellite is in the earth's shadow,  

DLR